Location: AstroGeek's Observatory
(41.9520°N, 70.9880°W)
Time: 19:49:51
(UTC-04:00)

ISS - All Passes

Search period start: 28 March 2015 00:00
Search period end: 07 April 2015 00:00
Orbit: 396 x 406 km, 51.6° (Epoch: 28 March)

Date Brightness Start Highest point End Pass type
(mag) Time Alt. Az. Time Alt. Az. Time Alt. Az.
28 Mar - 00:54:18 10° W 00:57:15 31° NNW 01:00:12 10° NE night (unlit)
28 Mar - 02:32:24 10° NW 02:34:24 15° N 02:36:23 10° NNE night (unlit)
28 Mar - 04:09:12 10° NW 04:11:41 20° NNE 04:14:11 10° ENE visible
28 Mar - 05:45:15 10° NW 05:48:29 84° NNE 05:51:42 10° ESE visible
28 Mar - 07:23:27 10° WSW 07:24:29 11° SW 07:25:24 10° SSW daylight
28 Mar - 22:25:09 10° S 22:27:35 20° SE 22:30:03 10° E night (unlit)
29 Mar - 00:00:36 10° WSW 00:03:46 50° NNW 00:06:57 10° NE night (unlit)
29 Mar - 01:38:31 10° NW 01:40:45 17° N 01:42:58 10° NNE night (unlit)
29 Mar - 03:15:54 10° NNW 03:18:04 16° N 03:20:15 10° NE visible
29 Mar - 04:51:56 10° NW 04:55:05 46° NNE 04:58:12 10° ESE visible
29 Mar - 06:28:45 10° W 06:31:18 21° SW 06:33:48 10° S daylight
29 Mar - 21:34:01 10° SE 21:34:22 10° SE 21:34:53 10° ESE night (unlit)
29 Mar - 23:07:05 10° SW 23:10:21 89° SSE 23:13:37 10° NE night (unlit)
30 Mar - 00:44:32 10° WNW 00:47:06 21° NNW 00:49:40 10° NE night (unlit)
30 Mar - 02:22:24 10° NW 02:24:23 15° N 02:26:22 10° NE night (unlit)
30 Mar - 03:58:40 10° NW 04:01:33 29° NNE 04:04:27 10° E visible
30 Mar - 05:34:58 10° WNW 05:38:02 41° SW 05:41:05 10° SSE visible
30 Mar - 22:13:52 10° SSW 22:16:59 44° SE 22:20:07 10° ENE night (unlit)
30 Mar - 23:50:36 10° W 23:53:29 28° NNW 23:56:22 10° NE night (unlit)
31 Mar - 01:28:41 10° NW 01:30:40 15° N 01:32:38 10° NE night (unlit)
31 Mar - 03:05:22 10° NW 03:07:56 21° NNE 03:10:31 10° ENE visible
31 Mar - 04:41:25 10° WNW 04:44:41 84° SSW 04:47:53 10° SE visible
31 Mar - 21:21:02 10° S 21:23:39 23° SE 21:26:19 10° E night (unlit)
31 Mar - 22:56:46 10° WSW 22:59:55 44° NNW 23:03:03 10° NE night (unlit)
01 Apr - 00:34:44 10° NW 00:36:55 16° N 00:39:05 10° NNE night (unlit)
01 Apr - 02:11:59 10° NNW 02:14:14 17° N 02:16:29 10° NE night (unlit)
01 Apr - 03:48:00 10° NW 03:51:11 52° NNE 03:54:21 10° ESE visible
01 Apr - 05:24:59 10° W 05:27:21 19° SW 05:29:39 10° S visible
01 Apr - 20:29:05 10° SSE 20:30:21 12° SE 20:31:44 10° ESE visible
01 Apr - 22:03:07 10° WSW 22:06:23 80° NW 22:09:39 10° NE night (unlit)
01 Apr - 23:40:41 10° WNW 23:43:11 20° NNW 23:45:40 10° NE night (unlit)
02 Apr - 01:18:27 10° NNW 01:20:28 15° N 01:22:29 10° NE night (unlit)
02 Apr - 02:54:38 10° NW 02:57:36 32° NNE 03:00:33 10° E night (unlit)
02 Apr - 04:31:00 10° WNW 04:34:01 35° SW 04:37:00 10° SSE visible
02 Apr - 21:09:43 10° SW 21:12:54 52° SE 21:16:05 10° ENE visible
02 Apr - 22:46:38 10° W 22:49:27 26° NNW 22:52:17 10° NE night (unlit)
03 Apr - 00:24:41 10° NW 00:26:39 15° N 00:28:37 10° NE night (unlit)
03 Apr - 02:01:15 10° NW 02:03:54 22° NNE 02:06:34 10° ENE night (unlit)
03 Apr - 03:37:21 10° WNW 03:40:35 73° SW 03:43:48 10° SE night (unlit)
03 Apr - 20:16:42 10° SSW 20:19:28 26° SE 20:22:17 10° ENE visible
03 Apr - 21:52:40 10° W 21:55:46 39° NNW 21:58:52 10° NE visible
03 Apr - 23:30:42 10° NW 23:32:50 16° N 23:34:56 10° NNE night (unlit)
04 Apr - 01:07:49 10° NNW 01:10:08 18° NNE 01:12:27 10° ENE night (unlit)
04 Apr - 02:43:49 10° NW 02:47:02 59° NNE 02:50:14 10° ESE night (unlit)
04 Apr - 04:21:01 10° W 04:23:09 16° SW 04:25:12 10° S night (unlit)
04 Apr - 19:24:22 10° SSE 19:26:05 14° SE 19:27:54 10° E daylight
04 Apr - 20:58:53 10° WSW 21:02:08 70° NW 21:05:24 10° NE visible
04 Apr - 22:36:33 10° WNW 22:38:59 19° NNW 22:41:24 10° NNE visible
05 Apr - 00:14:13 10° NNW 00:16:17 15° N 00:18:20 10° NE night (unlit)
05 Apr - 01:50:21 10° NW 01:53:22 35° NNE 01:56:24 10° E night (unlit)
05 Apr - 03:26:49 10° WNW 03:29:44 31° SW 03:32:37 10° SSE night (unlit)
05 Apr - 20:05:21 10° SW 20:08:34 60° SE 20:11:48 10° ENE visible
05 Apr - 21:42:24 10° WNW 21:45:10 25° NNW 21:47:55 10° NE visible
05 Apr - 23:20:26 10° NW 23:22:23 15° N 23:24:20 10° NE night (unlit)
06 Apr - 00:56:53 10° NW 00:59:36 24° NNE 01:02:20 10° ENE night (unlit)
06 Apr - 02:33:01 10° WNW 02:36:14 63° SW 02:39:25 10° SE night (unlit)
06 Apr - 19:12:08 10° SSW 19:15:02 30° SE 19:17:58 10° ENE daylight
06 Apr - 20:48:19 10° W 20:51:23 36° NNW 20:54:27 10° NE visible
06 Apr - 22:26:22 10° NW 22:28:28 16° N 22:30:32 10° NNE visible
